EW0929 Weather Reports


Display with metric or nautical units.
time (UTC)temp
F
wind
direction
speed
MPH
gust
MPH
rain 1hr
in
rain 24hr
in
rain mn
in
humidity
%
barometer
mb
20260505073116 46 131 0.0 0.0 0.00 0.00 0.00 63 1009.1
20260505071606 47 131 0.0 0.0 0.00 0.00 0.00 62 1008.8
20260505070125 47 131 0.0 0.0 0.00 0.00 0.00 61 1008.7
20260505064608 48 131 0.0 0.0 0.00 0.00 0.00 60 1008.7
20260505063112 49 131 0.0 0.0 0.00 0.00 0.00 59 1008.7
20260505061612 50 131 0.0 0.0 0.00 0.00 0.00 58 1008.5
20260505060105 50 131 0.0 0.0 0.00 0.00 0.00 56 1008.3
20260505054544 51 131 0.0 0.0 0.00 0.00 0.00 54 1008.1
20260505053022 52 131 0.0 0.0 0.00 0.00 0.00 54 1008.0
20260505051611 54 131 0.0 0.0 0.00 0.00 0.00 52 1007.8
20260505041614 59 131 0.0 0.0 0.00 0.00 0.00 42 1007.2
20260505040007 60 131 0.0 0.0 0.00 0.00 0.00 40 1007.0
20260505034613 62 131 0.0 0.0 0.00 0.00 0.00 38 1006.9
20260505033107 63 131 0.0 0.0 0.00 0.00 0.00 36 1006.7
20260505031618 65 131 0.0 0.0 0.00 0.00 0.00 34 1006.6
20260505030019 68 131 0.0 0.0 0.00 0.00 0.00 33 1006.4
20260505024531 70 131 0.0 0.0 0.00 0.00 0.00 31 1006.3
20260505023030 72 131 0.0 0.0 0.00 0.00 0.00 28 1006.2
20260505021526 74 134 0.0 0.0 0.00 0.00 0.00 27 1006.3
20260505020106 75 134 1.0 0.0 0.00 0.00 0.00 25 1006.2
20260505014625 76 132 0.0 0.0 0.00 0.00 0.00 24 1006.2
20260505013120 76 360 1.0 0.0 0.00 0.00 0.00 24 1006.1
20260505011610 76 329 1.0 0.0 0.00 0.00 0.00 25 1006.2
20260505010116 76 134 1.0 0.0 0.00 0.00 0.00 26 1006.2
20260505004541 75 162 2.0 0.0 0.00 0.00 0.00 27 1006.2
20260505003025 75 155 1.0 0.0 0.00 0.00 0.00 26 1006.3
20260505001615 76 108 1.0 0.0 0.00 0.00 0.00 25 1006.4
20260505000118 75 152 1.0 0.0 0.00 0.00 0.00 27 1006.4
20260504234618 75 123 3.0 0.0 0.00 0.00 0.00 27 1006.5
20260504233118 74 246 1.0 0.0 0.00 0.00 0.00 28 1006.8
20260504231620 74 244 2.0 0.0 0.00 0.00 0.00 29 1007.0
20260504230109 74 169 2.0 0.0 0.00 0.00 0.00 28 1007.0
20260504224523 76 56 2.0 0.0 0.00 0.00 0.00 27 1007.0
20260504223121 75 104 1.0 0.0 0.00 0.00 0.00 26 1007.1
20260504221618 74 360 3.0 0.0 0.00 0.00 0.00 26 1007.2
20260504220125 73 57 1.0 0.0 0.00 0.00 0.00 29 1007.3
20260504214536 72 31 3.0 0.0 0.00 0.00 0.00 28 1007.5
20260504213112 72 125 3.0 0.0 0.00 0.00 0.00 27 1007.7
20260504211621 71 176 2.0 0.0 0.00 0.00 0.00 30 1007.7
20260504204606 72 260 3.0 0.0 0.00 0.00 0.00 29 1007.9
20260504203010 73 342 2.0 0.0 0.00 0.00 0.00 27 1008.0
20260504201602 72 49 2.0 0.0 0.00 0.00 0.00 28 1008.1
20260504200032 71 330 1.0 0.0 0.00 0.00 0.00 31 1008.2
20260504194526 70 231 4.0 0.0 0.00 0.00 0.00 30 1008.2
20260504193112 70 264 2.0 0.0 0.00 0.00 0.00 29 1008.4
20260504191610 70 238 3.0 0.0 0.00 0.00 0.00 33 1008.3
20260504190018 69 189 5.0 0.0 0.00 0.00 0.00 31 1008.4
20260504184518 70 173 3.0 0.0 0.00 0.00 0.00 31 1008.7
20260504183107 69 178 2.0 0.0 0.00 0.00 0.00 33 1008.8
20260504181604 68 173 3.0 0.0 0.00 0.00 0.00 32 1008.9
20260504180005 68 197 2.0 0.0 0.00 0.00 0.00 33 1008.9
20260504174508 68 148 2.0 0.0 0.00 0.00 0.00 34 1008.9
20260504173108 66 234 3.0 0.0 0.00 0.00 0.00 40 1008.8
20260504171504 65 188 3.0 0.0 0.00 0.00 0.00 37 1009.2
20260504140109 39 171 0.0 0.0 0.00 0.00 0.00 84 1010.5
20260504110123 40 171 0.0 0.0 0.00 0.00 0.00 75 1010.2
20260504081604 44 171 0.0 0.0 0.00 0.00 0.00 65 1009.9